SBI458 UNKL-UNNT

Flight info

Callsign SBI458
Flight time 1h 4m
Altitude 34000
Route APRUS2F APRUS B926 NATIR NATIR1K
Aircraft B738/M-SDE2E3FGHIRWXY/LB1

Departure

Time 2026-04-27 14:16
Airport Krasnoyarsk International Airport (UNKL)

Arrival

Time 2026-04-27 15:20
Airport Novosibirsk Tolmachevo Airport (UNNT)
Time Latitude Longitude Altitude Speed Heading
2026-04-27 13:41 56.18063 92.47601 948 ft 0 kts 20°
2026-04-27 14:06 56.18070 92.47606 948 ft 1 kts 20°
2026-04-27 14:06 56.18087 92.47625 948 ft 5 kts 46°
2026-04-27 14:06 56.18092 92.47683 948 ft 4 kts 103°
2026-04-27 14:06 56.18083 92.47731 948 ft 3 kts 109°
2026-04-27 14:07 56.18074 92.47772 948 ft 3 kts 111°
2026-04-27 14:07 56.18060 92.47836 948 ft 5 kts 112°
2026-04-27 14:07 56.18043 92.47910 948 ft 8 kts 111°
2026-04-27 14:07 56.18000 92.47979 949 ft 10 kts 176°
2026-04-27 14:08 56.17918 92.47930 949 ft 14 kts 201°
2026-04-27 14:08 56.17839 92.47987 949 ft 14 kts 116°
2026-04-27 14:08 56.17799 92.48155 949 ft 14 kts 111°
2026-04-27 14:08 56.17756 92.48330 949 ft 17 kts 114°
2026-04-27 14:09 56.17701 92.48556 949 ft 20 kts 114°
2026-04-27 14:09 56.17648 92.48781 949 ft 19 kts 112°
2026-04-27 14:09 56.17598 92.48989 949 ft 17 kts 111°
2026-04-27 14:09 56.17552 92.49183 949 ft 16 kts 112°
2026-04-27 14:10 56.17509 92.49362 949 ft 14 kts 112°
2026-04-27 14:10 56.17470 92.49525 949 ft 13 kts 112°
2026-04-27 14:10 56.17437 92.49672 949 ft 13 kts 114°
2026-04-27 14:10 56.17393 92.49852 949 ft 17 kts 111°
2026-04-27 14:11 56.17344 92.50055 948 ft 17 kts 113°
2026-04-27 14:11 56.17297 92.50259 948 ft 17 kts 112°
2026-04-27 14:11 56.17249 92.50455 949 ft 16 kts 112°
2026-04-27 14:11 56.17202 92.50655 948 ft 17 kts 111°
2026-04-27 14:12 56.17157 92.50845 948 ft 15 kts 112°
2026-04-27 14:12 56.17107 92.51052 949 ft 21 kts 112°
2026-04-27 14:12 56.17049 92.51295 948 ft 20 kts 112°
2026-04-27 14:12 56.16996 92.51518 948 ft 18 kts 113°
2026-04-27 14:13 56.16946 92.51723 948 ft 17 kts 112°
2026-04-27 14:13 56.16898 92.51913 949 ft 15 kts 123°
2026-04-27 14:13 56.16821 92.52029 948 ft 13 kts 155°
2026-04-27 14:13 56.16730 92.52065 948 ft 14 kts 180°
2026-04-27 14:14 56.16661 92.51994 948 ft 11 kts 268°
2026-04-27 14:14 56.16674 92.51916 948 ft 0 kts 292°
2026-04-27 14:15 56.16678 92.51901 948 ft 8 kts 292°
2026-04-27 14:15 56.16806 92.51363 948 ft 83 kts 293°
2026-04-27 14:15 56.17125 92.50031 949 ft 145 kts 292°
2026-04-27 14:15 56.17576 92.48174 1192 ft 172 kts 294°
2026-04-27 14:16 56.18030 92.46298 2164 ft 160 kts 293°
2026-04-27 14:16 56.18466 92.44490 2769 ft 166 kts 294°
2026-04-27 14:16 56.18931 92.42542 3200 ft 177 kts 292°
2026-04-27 14:16 56.19047 92.40290 3604 ft 193 kts 258°
2026-04-27 14:17 56.18549 92.37914 3981 ft 212 kts 250°
2026-04-27 14:17 56.18025 92.35405 4472 ft 223 kts 254°
2026-04-27 14:17 56.17540 92.32655 4911 ft 239 kts 255°
2026-04-27 14:17 56.17054 92.29750 5444 ft 251 kts 255°
2026-04-27 14:18 56.16546 92.26731 6150 ft 256 kts 255°
2026-04-27 14:18 56.16026 92.23698 6929 ft 257 kts 254°
2026-04-27 14:18 56.15504 92.20676 7774 ft 256 kts 253°
2026-04-27 14:18 56.14983 92.17680 8569 ft 256 kts 253°
2026-04-27 14:19 56.14458 92.14625 9334 ft 257 kts 253°
2026-04-27 14:19 56.13935 92.11595 10116 ft 256 kts 253°
2026-04-27 14:19 56.13405 92.08576 10674 ft 263 kts 252°
2026-04-27 14:19 56.12840 92.05366 11084 ft 276 kts 252°
2026-04-27 14:20 56.12260 92.02026 11497 ft 289 kts 253°
2026-04-27 14:20 56.11650 91.98485 11851 ft 304 kts 252°
2026-04-27 14:20 56.11028 91.94860 12378 ft 312 kts 252°
2026-04-27 14:20 56.10381 91.91112 13102 ft 314 kts 252°
2026-04-27 14:21 56.09743 91.87436 13879 ft 314 kts 251°
2026-04-27 14:21 56.09091 91.83675 14607 ft 317 kts 251°
2026-04-27 14:21 56.08441 91.79953 15277 ft 321 kts 251°
2026-04-27 14:21 56.07776 91.76162 16053 ft 321 kts 251°
2026-04-27 14:22 56.07107 91.72341 16695 ft 325 kts 251°
2026-04-27 14:22 56.06431 91.68492 17414 ft 326 kts 251°
2026-04-27 14:22 56.05748 91.64611 18104 ft 328 kts 250°
2026-04-27 14:22 56.05062 91.60722 18711 ft 332 kts 250°
2026-04-27 14:23 56.04369 91.56789 19331 ft 335 kts 250°
2026-04-27 14:23 56.03670 91.52827 19968 ft 337 kts 250°
2026-04-27 14:23 56.02961 91.48827 20574 ft 340 kts 250°
2026-04-27 14:23 56.02249 91.44820 21113 ft 344 kts 250°
2026-04-27 14:24 56.01527 91.40762 21708 ft 346 kts 250°
2026-04-27 14:24 56.00792 91.36645 22284 ft 348 kts 249°
2026-04-27 14:24 56.00056 91.32535 22834 ft 351 kts 248°
2026-04-27 14:24 55.99319 91.28418 23370 ft 353 kts 248°
2026-04-27 14:25 55.98572 91.24256 23863 ft 356 kts 249°
2026-04-27 14:25 55.97908 91.19988 24310 ft 362 kts 252°
2026-04-27 14:25 55.97368 91.15616 24834 ft 364 kts 254°
2026-04-27 14:25 55.96869 91.11135 25298 ft 368 kts 255°
2026-04-27 14:26 55.96388 91.06711 25767 ft 370 kts 254°
2026-04-27 14:26 55.95887 91.02206 26213 ft 373 kts 254°
2026-04-27 14:26 55.95365 90.97646 26690 ft 375 kts 254°
2026-04-27 14:26 55.94836 90.93115 27134 ft 377 kts 254°
2026-04-27 14:27 55.94293 90.88532 27510 ft 381 kts 254°
2026-04-27 14:27 55.93743 90.83911 27969 ft 382 kts 254°
2026-04-27 14:27 55.93195 90.79338 28385 ft 384 kts 254°
2026-04-27 14:27 55.92630 90.74657 28787 ft 386 kts 254°
2026-04-27 14:28 55.92069 90.70007 29308 ft 385 kts 254°
2026-04-27 14:28 55.91507 90.65357 29839 ft 383 kts 254°
2026-04-27 14:28 55.90946 90.60744 30371 ft 381 kts 254°
2026-04-27 14:28 55.90388 90.56181 30881 ft 379 kts 254°
2026-04-27 14:29 55.89822 90.51566 31384 ft 376 kts 255°
2026-04-27 14:29 55.89264 90.47031 31883 ft 373 kts 255°
2026-04-27 14:29 55.88708 90.42538 32378 ft 370 kts 255°
2026-04-27 14:29 55.88160 90.38113 32871 ft 366 kts 255°
2026-04-27 14:30 55.87618 90.33727 33369 ft 362 kts 253°
2026-04-27 14:30 55.87065 90.29299 33586 ft 366 kts 254°
2026-04-27 14:30 55.86501 90.24833 33643 ft 373 kts 254°
2026-04-27 14:30 55.85931 90.20319 33822 ft 376 kts 254°
2026-04-27 14:31 55.85363 90.15802 34144 ft 375 kts 254°
2026-04-27 14:31 55.84215 90.06681 34163 ft 378 kts 254°
2026-04-27 14:32 55.83045 89.97448 34164 ft 389 kts 254°
2026-04-27 14:32 55.81834 89.87988 34170 ft 393 kts 254°
2026-04-27 14:33 55.80629 89.78600 34176 ft 390 kts 254°
2026-04-27 14:33 55.79416 89.69217 34186 ft 393 kts 254°
2026-04-27 14:34 55.78188 89.59793 34187 ft 393 kts 254°
2026-04-27 14:34 55.76944 89.50319 34176 ft 393 kts 254°
2026-04-27 14:35 55.75703 89.40947 34188 ft 392 kts 254°
2026-04-27 14:35 55.74443 89.31505 34194 ft 392 kts 253°
2026-04-27 14:36 55.73179 89.22089 34193 ft 393 kts 253°
2026-04-27 14:36 55.71913 89.12715 34185 ft 393 kts 253°
2026-04-27 14:37 55.70639 89.03303 34177 ft 393 kts 253°
2026-04-27 14:37 55.69359 88.93918 34174 ft 394 kts 253°
2026-04-27 14:38 55.68081 88.84511 34189 ft 393 kts 253°
2026-04-27 14:38 55.66795 88.75112 34181 ft 394 kts 253°
2026-04-27 14:39 55.65502 88.65755 34163 ft 393 kts 253°
2026-04-27 14:39 55.64196 88.56361 34178 ft 394 kts 253°
2026-04-27 14:40 55.62879 88.46963 34197 ft 395 kts 253°
2026-04-27 14:40 55.61559 88.37595 34178 ft 394 kts 253°
2026-04-27 14:41 55.60233 88.28214 34174 ft 394 kts 252°
2026-04-27 14:41 55.58907 88.18845 34184 ft 394 kts 253°
2026-04-27 14:42 55.57573 88.09509 34159 ft 394 kts 253°
2026-04-27 14:42 55.56224 88.00142 34185 ft 395 kts 252°
2026-04-27 14:43 55.54864 87.90784 34179 ft 397 kts 252°
2026-04-27 14:43 55.53489 87.81371 34175 ft 396 kts 253°
2026-04-27 14:44 55.52106 87.71974 34192 ft 396 kts 253°
2026-04-27 14:44 55.50722 87.62578 34191 ft 396 kts 253°
2026-04-27 14:45 55.49332 87.53207 34190 ft 399 kts 253°
2026-04-27 14:45 55.47924 87.43810 34159 ft 397 kts 253°
2026-04-27 14:46 55.46493 87.34370 34182 ft 398 kts 252°
2026-04-27 14:46 55.45067 87.24992 34183 ft 400 kts 252°
2026-04-27 14:47 55.43624 87.15556 34190 ft 398 kts 252°
2026-04-27 14:47 55.42194 87.06229 34179 ft 399 kts 252°
2026-04-27 14:48 55.40735 86.96772 34190 ft 399 kts 253°
2026-04-27 14:48 55.38547 86.82732 34177 ft 399 kts 253°
2026-04-27 14:49 55.37076 86.73296 34187 ft 399 kts 253°
2026-04-27 14:49 55.35592 86.63921 34183 ft 399 kts 252°
2026-04-27 14:50 55.34098 86.54527 34197 ft 400 kts 253°
2026-04-27 14:50 55.32608 86.45186 34204 ft 401 kts 253°
2026-04-27 14:51 55.31099 86.35770 34190 ft 401 kts 253°
2026-04-27 14:51 55.29581 86.26344 34191 ft 401 kts 252°
2026-04-27 14:52 55.28056 86.16938 34207 ft 400 kts 252°
2026-04-27 14:52 55.26881 86.07444 34212 ft 403 kts 259°
2026-04-27 14:53 55.26330 85.97802 34200 ft 387 kts 262°
2026-04-27 14:53 55.25940 85.88532 34190 ft 384 kts 263°
2026-04-27 14:54 55.25509 85.79099 34128 ft 387 kts 262°
2026-04-27 14:54 55.25290 85.74455 33815 ft 383 kts 262°
2026-04-27 14:54 55.25069 85.69859 33504 ft 376 kts 262°
2026-04-27 14:55 55.24849 85.65351 33102 ft 372 kts 262°
2026-04-27 14:55 55.24628 85.60916 32655 ft 370 kts 262°
2026-04-27 14:55 55.24402 85.56422 32203 ft 369 kts 261°
2026-04-27 14:55 55.24174 85.51966 31712 ft 368 kts 260°
2026-04-27 14:56 55.23945 85.47578 31209 ft 366 kts 260°
2026-04-27 14:56 55.23713 85.43158 30706 ft 364 kts 259°
2026-04-27 14:56 55.23483 85.38780 30190 ft 360 kts 259°
2026-04-27 14:56 55.23254 85.34464 29711 ft 355 kts 259°
2026-04-27 14:57 55.23026 85.30214 29247 ft 351 kts 259°
2026-04-27 14:57 55.22800 85.26005 28788 ft 347 kts 259°
2026-04-27 14:57 55.22573 85.21797 28325 ft 343 kts 259°
2026-04-27 14:57 55.22352 85.17722 27879 ft 339 kts 259°
2026-04-27 14:58 55.22133 85.13681 27433 ft 335 kts 259°
2026-04-27 14:58 55.21913 85.09668 26987 ft 331 kts 259°
2026-04-27 14:58 55.21694 85.05681 26549 ft 328 kts 260°
2026-04-27 14:58 55.21477 85.01751 26114 ft 324 kts 260°
2026-04-27 14:59 55.21261 84.97859 25679 ft 321 kts 260°
2026-04-27 14:59 55.21043 84.93994 25263 ft 317 kts 260°
2026-04-27 14:59 55.20826 84.90185 24821 ft 314 kts 260°
2026-04-27 14:59 55.20612 84.86434 24410 ft 310 kts 261°
2026-04-27 15:00 55.20396 84.82687 23984 ft 307 kts 260°
2026-04-27 15:00 55.20186 84.79030 23571 ft 304 kts 261°
2026-04-27 15:00 55.19975 84.75384 23163 ft 300 kts 261°
2026-04-27 15:00 55.19758 84.71815 22760 ft 296 kts 259°
2026-04-27 15:01 55.19398 84.68293 22361 ft 292 kts 254°
2026-04-27 15:01 55.18870 84.64883 21962 ft 290 kts 252°
2026-04-27 15:01 55.18279 84.61500 21584 ft 298 kts 251°
2026-04-27 15:01 55.17653 84.57999 21164 ft 309 kts 252°
2026-04-27 15:02 55.17011 84.54369 20711 ft 311 kts 252°
2026-04-27 15:02 55.16391 84.50818 20312 ft 307 kts 253°
2026-04-27 15:02 55.15779 84.47280 19881 ft 303 kts 253°
2026-04-27 15:02 55.15169 84.43753 19482 ft 300 kts 253°
2026-04-27 15:03 55.14571 84.40309 19067 ft 296 kts 253°
2026-04-27 15:03 55.13974 84.36887 18661 ft 293 kts 253°
2026-04-27 15:03 55.13387 84.33521 18280 ft 289 kts 252°
2026-04-27 15:03 55.12808 84.30210 17881 ft 287 kts 253°
2026-04-27 15:04 55.12222 84.26867 17480 ft 285 kts 253°
2026-04-27 15:04 55.11649 84.23598 17093 ft 283 kts 253°
2026-04-27 15:04 55.11072 84.20319 16695 ft 280 kts 253°
2026-04-27 15:04 55.10511 84.17130 16316 ft 278 kts 253°
2026-04-27 15:05 55.09942 84.13900 15927 ft 276 kts 253°
2026-04-27 15:05 55.09382 84.10733 15548 ft 274 kts 253°
2026-04-27 15:05 55.08818 84.07543 15168 ft 278 kts 253°
2026-04-27 15:05 55.08257 84.04288 14779 ft 288 kts 255°
2026-04-27 15:06 55.07829 84.00822 14355 ft 293 kts 261°
2026-04-27 15:06 55.07576 83.97333 13954 ft 290 kts 264°
2026-04-27 15:06 55.07388 83.93820 13554 ft 288 kts 265°
2026-04-27 15:06 55.07210 83.90370 13147 ft 285 kts 265°
2026-04-27 15:07 55.07019 83.86945 12742 ft 283 kts 265°
2026-04-27 15:07 55.06817 83.83562 12348 ft 281 kts 264°
2026-04-27 15:07 55.06608 83.80179 11945 ft 280 kts 265°
2026-04-27 15:07 55.06397 83.76828 11561 ft 278 kts 265°
2026-04-27 15:08 55.06231 83.74193 11246 ft 276 kts 265°
2026-04-27 15:08 55.06021 83.70886 10857 ft 275 kts 265°
2026-04-27 15:08 55.05815 83.67637 10537 ft 271 kts 265°
2026-04-27 15:08 55.05610 83.64417 10371 ft 261 kts 265°
2026-04-27 15:09 55.05412 83.61322 10216 ft 254 kts 265°
2026-04-27 15:09 55.05217 83.58270 10093 ft 259 kts 265°
2026-04-27 15:09 55.05011 83.55040 9679 ft 274 kts 265°
2026-04-27 15:09 55.04798 83.51744 9279 ft 274 kts 265°
2026-04-27 15:10 55.04586 83.48500 8920 ft 271 kts 265°
2026-04-27 15:10 55.04373 83.45252 8564 ft 268 kts 265°
2026-04-27 15:10 55.04165 83.42041 8210 ft 266 kts 265°
2026-04-27 15:10 55.03959 83.38856 7850 ft 264 kts 266°
2026-04-27 15:11 55.03752 83.35713 7497 ft 262 kts 264°
2026-04-27 15:11 55.03345 83.32633 7219 ft 258 kts 249°
2026-04-27 15:11 55.02448 83.30036 7072 ft 248 kts 234°
2026-04-27 15:11 55.01373 83.27763 7000 ft 237 kts 233°
2026-04-27 15:12 55.00333 83.25559 7015 ft 236 kts 234°
2026-04-27 15:12 54.99309 83.23274 6865 ft 244 kts 235°
2026-04-27 15:12 54.98282 83.20921 6549 ft 244 kts 236°
2026-04-27 15:12 54.97272 83.18595 6243 ft 243 kts 236°
2026-04-27 15:13 54.96254 83.16265 5954 ft 239 kts 236°
2026-04-27 15:13 54.95261 83.14006 5607 ft 236 kts 236°
2026-04-27 15:13 54.94349 83.11710 5307 ft 225 kts 245°
2026-04-27 15:13 54.93946 83.09193 5029 ft 211 kts 273°
2026-04-27 15:14 54.94185 83.06780 4858 ft 196 kts 288°
2026-04-27 15:14 54.94733 83.04625 4454 ft 198 kts 303°
2026-04-27 15:14 54.95603 83.02796 4085 ft 199 kts 313°
2026-04-27 15:14 54.96556 83.01046 3734 ft 197 kts 312°
2026-04-27 15:15 54.97456 82.99323 3431 ft 191 kts 311°
2026-04-27 15:15 54.98325 82.97614 3121 ft 187 kts 311°
2026-04-27 15:15 54.99163 82.95958 2906 ft 178 kts 311°
2026-04-27 15:15 54.99962 82.94378 2710 ft 172 kts 311°
2026-04-27 15:16 55.00746 82.92829 2553 ft 171 kts 311°
2026-04-27 15:16 55.01528 82.91278 2374 ft 162 kts 311°
2026-04-27 15:16 55.02256 82.89835 2187 ft 158 kts 311°
2026-04-27 15:16 55.02953 82.88374 2037 ft 159 kts 303°
2026-04-27 15:17 55.03275 82.86555 1950 ft 160 kts 270°
2026-04-27 15:17 55.03062 82.84631 1966 ft 163 kts 261°
2026-04-27 15:17 55.02861 82.82679 1960 ft 162 kts 264°
2026-04-27 15:17 55.02688 82.80844 1903 ft 147 kts 264°
2026-04-27 15:18 55.02531 82.79174 1712 ft 139 kts 264°
2026-04-27 15:18 55.02378 82.77496 1540 ft 140 kts 264°
2026-04-27 15:18 55.02220 82.75799 1340 ft 145 kts 264°
2026-04-27 15:18 55.02054 82.74046 1137 ft 149 kts 263°
2026-04-27 15:19 55.01890 82.72271 930 ft 150 kts 263°
2026-04-27 15:19 55.01731 82.70483 758 ft 152 kts 264°
2026-04-27 15:19 55.01570 82.68623 579 ft 155 kts 263°
2026-04-27 15:19 55.01394 82.66738 411 ft 160 kts 262°
2026-04-27 15:20 55.01219 82.64873 379 ft 143 kts 262°
2026-04-27 15:20 55.01105 82.63529 374 ft 78 kts 261°
2026-04-27 15:20 55.01049 82.62931 374 ft 24 kts 261°